Time,TemperatureF,DewpointF,PressureIn,WindDirection,WindDirectionDegrees,WindSpeedMPH,WindSpeedGustMPH,Humidity,HourlyPrecipIn,Conditions,Clouds,dailyrainin,SoftwareType,DateUTC
2013-11-14 00:01:00,39.9,28.9,30.01,SSW,194,4.0,15.0,64,0.00,,,0.00,meteohub,2013-11-14 06:01:00,
2013-11-14 00:06:00,39.9,28.9,30.00,SSW,210,7.0,15.0,64,0.00,,,0.00,meteohub,2013-11-14 06:06:00,
2013-11-14 00:11:00,39.9,28.9,30.00,SSW,211,8.0,14.0,64,0.00,,,0.00,meteohub,2013-11-14 06:11:00,
2013-11-14 00:16:00,39.9,28.9,29.99,SSW,203,5.0,14.0,64,0.00,,,0.00,meteohub,2013-11-14 06:16:00,
2013-11-14 00:21:00,39.9,28.8,29.99,SSW,198,7.0,14.0,64,0.00,,,0.00,meteohub,2013-11-14 06:21:00,
2013-11-14 00:27:00,39.9,28.8,29.99,SSW,208,4.0,12.0,64,0.00,,,0.00,meteohub,2013-11-14 06:27:00,
2013-11-14 00:32:00,39.9,28.9,29.99,SSW,206,3.0,12.0,65,0.00,,,0.00,meteohub,2013-11-14 06:32:00,
2013-11-14 00:37:00,39.9,28.9,29.99,SSW,211,5.0,12.0,64,0.00,,,0.00,meteohub,2013-11-14 06:37:00,
2013-11-14 00:42:00,39.9,28.9,29.99,SSW,197,5.0,13.0,65,0.00,,,0.00,meteohub,2013-11-14 06:42:00,
2013-11-14 00:47:00,39.9,28.9,29.99,SSW,202,8.0,13.0,64,0.00,,,0.00,meteohub,2013-11-14 06:47:00,
2013-11-14 00:52:00,39.9,28.8,29.99,SSW,209,7.0,15.0,64,0.00,,,0.00,meteohub,2013-11-14 06:52:00,
2013-11-14 00:57:00,39.9,28.8,29.99,SSW,210,6.0,15.0,64,0.00,,,0.00,meteohub,2013-11-14 06:57:00,
2013-11-14 01:02:00,39.9,28.8,29.99,SSW,205,7.0,13.0,64,0.00,,,0.00,meteohub,2013-11-14 07:02:00,
2013-11-14 01:07:00,39.9,28.8,29.99,SSW,209,2.0,12.0,64,0.00,,,0.00,meteohub,2013-11-14 07:07:00,
2013-11-14 01:12:00,39.9,28.8,29.99,SSW,199,6.0,12.0,64,0.00,,,0.00,meteohub,2013-11-14 07:12:00,
2013-11-14 01:17:00,39.9,28.8,29.99,SW,219,6.0,12.0,64,0.00,,,0.00,meteohub,2013-11-14 07:17:00,
2013-11-14 01:22:00,39.9,28.8,29.99,SW,223,5.0,12.0,64,0.00,,,0.00,meteohub,2013-11-14 07:22:00,
2013-11-14 01:27:00,39.9,28.8,29.99,SW,226,5.0,11.0,64,0.00,,,0.00,meteohub,2013-11-14 07:27:00,
2013-11-14 01:32:00,39.9,28.8,29.99,SSW,200,3.0,8.0,64,0.00,,,0.00,meteohub,2013-11-14 07:32:00,
2013-11-14 01:37:00,39.9,28.6,29.99,SW,219,0.0,8.0,64,0.00,,,0.00,meteohub,2013-11-14 07:37:00,
2013-11-14 01:43:00,39.9,28.4,29.99,SW,222,4.0,7.0,64,0.00,,,0.00,meteohub,2013-11-14 07:43:00,
2013-11-14 01:48:00,39.0,28.4,29.99,SW,215,1.0,7.0,64,0.00,,,0.00,meteohub,2013-11-14 07:48:00,
2013-11-14 01:53:00,39.0,28.2,29.99,SSW,202,7.0,7.0,64,0.00,,,0.00,meteohub,2013-11-14 07:53:00,
2013-11-14 01:58:00,39.0,28.4,29.99,SSW,210,3.0,7.0,65,0.00,,,0.00,meteohub,2013-11-14 07:58:00,
2013-11-14 02:03:00,39.0,28.4,29.99,SSW,212,4.0,7.0,65,0.00,,,0.00,meteohub,2013-11-14 08:03:00,
2013-11-14 02:08:00,39.0,28.4,29.99,SW,214,3.0,7.0,65,0.00,,,0.00,meteohub,2013-11-14 08:08:00,
2013-11-14 02:13:00,39.0,28.2,29.99,SSW,208,5.0,7.0,65,0.00,,,0.00,meteohub,2013-11-14 08:13:00,
2013-11-14 02:18:00,39.0,28.2,29.98,SSW,211,5.0,7.0,66,0.00,,,0.00,meteohub,2013-11-14 08:18:00,
2013-11-14 02:23:00,37.9,28.2,29.98,SSW,211,4.0,8.0,66,0.00,,,0.00,meteohub,2013-11-14 08:23:00,
2013-11-14 02:28:00,37.9,27.9,29.99,SW,216,0.0,8.0,66,0.00,,,0.00,meteohub,2013-11-14 08:28:00,
2013-11-14 02:33:00,37.9,27.7,29.98,SW,215,2.0,8.0,66,0.00,,,0.00,meteohub,2013-11-14 08:33:00,
2013-11-14 02:38:00,37.9,27.9,29.98,SSW,210,0.0,7.0,67,0.00,,,0.00,meteohub,2013-11-14 08:38:00,
2013-11-14 02:43:00,37.9,27.9,29.99,SW,223,4.0,7.0,67,0.00,,,0.00,meteohub,2013-11-14 08:43:00,
2013-11-14 02:48:00,37.9,27.9,29.98,SW,221,4.0,8.0,67,0.00,,,0.00,meteohub,2013-11-14 08:48:00,
2013-11-14 02:54:00,37.9,27.9,29.98,SW,218,5.0,8.0,67,0.00,,,0.00,meteohub,2013-11-14 08:54:00,
2013-11-14 02:59:00,37.9,27.9,29.98,SW,219,5.0,8.0,66,0.00,,,0.00,meteohub,2013-11-14 08:59:00,
2013-11-14 03:04:00,37.9,27.9,29.98,SSW,207,2.0,8.0,67,0.00,,,0.00,meteohub,2013-11-14 09:04:00,
2013-11-14 03:09:00,37.9,27.7,29.98,SSW,209,4.0,8.0,67,0.00,,,0.00,meteohub,2013-11-14 09:09:00,
2013-11-14 03:14:00,37.9,27.7,29.98,SSW,212,5.0,7.0,67,0.00,,,0.00,meteohub,2013-11-14 09:14:00,
2013-11-14 03:19:00,37.9,28.0,29.97,SSW,209,3.0,8.0,67,0.00,,,0.00,meteohub,2013-11-14 09:19:00,
2013-11-14 03:24:00,37.9,27.9,29.98,SSW,209,3.0,8.0,67,0.00,,,0.00,meteohub,2013-11-14 09:24:00,
2013-11-14 03:29:00,37.9,27.9,29.97,SSW,207,1.0,8.0,68,0.00,,,0.00,meteohub,2013-11-14 09:29:00,
2013-11-14 03:34:00,37.0,27.7,29.98,SSW,208,0.0,7.0,68,0.00,,,0.00,meteohub,2013-11-14 09:34:00,
2013-11-14 03:39:00,37.0,27.7,29.98,SSW,203,0.0,7.0,68,0.00,,,0.00,meteohub,2013-11-14 09:39:00,
2013-11-14 03:44:00,37.0,27.7,29.98,SSW,199,2.0,6.0,69,0.00,,,0.00,meteohub,2013-11-14 09:44:00,
2013-11-14 03:49:00,36.0,27.7,29.98,SSW,198,4.0,5.0,69,0.00,,,0.00,meteohub,2013-11-14 09:49:00,
2013-11-14 03:54:00,36.0,27.7,29.98,SSW,196,3.0,5.0,69,0.00,,,0.00,meteohub,2013-11-14 09:54:00,
2013-11-14 03:59:00,36.0,27.7,29.98,SSW,196,0.0,5.0,69,0.00,,,0.00,meteohub,2013-11-14 09:59:00,
2013-11-14 04:04:00,36.0,27.3,29.98,North,-999,-999.0,6.0,69,0.00,,,0.00,meteohub,2013-11-14 10:04:00,
2013-11-14 04:10:00,36.0,27.1,29.98,SSW,196,1.0,6.0,69,0.00,,,0.00,meteohub,2013-11-14 10:10:00,
2013-11-14 04:15:00,36.0,27.3,29.97,SSW,196,3.0,4.0,70,0.00,,,0.00,meteohub,2013-11-14 10:15:00,
2013-11-14 04:20:00,35.1,27.1,29.97,SSW,196,4.0,5.0,71,0.00,,,0.00,meteohub,2013-11-14 10:20:00,
2013-11-14 04:25:00,35.1,27.0,29.97,SSW,196,4.0,5.0,71,0.00,,,0.00,meteohub,2013-11-14 10:25:00,
2013-11-14 04:30:00,35.1,27.1,29.97,SSW,195,3.0,6.0,72,0.00,,,0.00,meteohub,2013-11-14 10:30:00,
2013-11-14 04:35:00,35.1,27.1,29.96,SSW,198,3.0,6.0,72,0.00,,,0.00,meteohub,2013-11-14 10:35:00,
2013-11-14 04:40:00,35.1,27.0,29.97,SSW,192,0.0,7.0,72,0.00,,,0.00,meteohub,2013-11-14 10:40:00,
2013-11-14 04:45:00,35.1,26.8,29.96,SSW,192,3.0,7.0,72,0.00,,,0.00,meteohub,2013-11-14 10:45:00,
2013-11-14 04:50:00,35.1,26.8,29.96,SSW,194,2.0,7.0,72,0.00,,,0.00,meteohub,2013-11-14 10:50:00,
2013-11-14 04:55:00,35.1,26.6,29.96,SSW,194,0.0,7.0,72,0.00,,,0.00,meteohub,2013-11-14 10:55:00,
2013-11-14 05:00:00,35.1,26.8,29.97,SSW,194,0.0,6.0,72,0.00,,,0.00,meteohub,2013-11-14 11:00:00,
2013-11-14 05:05:00,35.1,26.6,29.97,SSW,194,0.0,6.0,72,0.00,,,0.00,meteohub,2013-11-14 11:05:00,
2013-11-14 05:10:00,35.1,26.4,29.96,SSW,194,0.0,6.0,72,0.00,,,0.00,meteohub,2013-11-14 11:10:00,
2013-11-14 05:15:00,35.1,26.6,29.96,SSW,194,3.0,4.0,72,0.00,,,0.00,meteohub,2013-11-14 11:15:00,
2013-11-14 05:20:00,35.1,26.4,29.96,SSW,194,3.0,5.0,72,0.00,,,0.00,meteohub,2013-11-14 11:20:00,
2013-11-14 05:26:00,34.0,26.4,29.96,SSW,194,3.0,5.0,72,0.00,,,0.00,meteohub,2013-11-14 11:26:00,
2013-11-14 05:31:00,34.0,26.2,29.95,SSW,194,4.0,5.0,72,0.00,,,0.00,meteohub,2013-11-14 11:31:00,
2013-11-14 05:36:00,33.1,26.4,29.95,SSW,194,0.0,5.0,73,0.00,,,0.00,meteohub,2013-11-14 11:36:00,
2013-11-14 05:41:00,32.0,26.2,29.96,SSW,194,0.0,6.0,74,0.00,,,0.00,meteohub,2013-11-14 11:41:00,
2013-11-14 05:46:00,32.0,26.2,29.96,SSW,194,0.0,6.0,76,0.00,,,0.00,meteohub,2013-11-14 11:46:00,
2013-11-14 05:51:00,32.0,25.7,29.96,SSW,194,0.0,0.0,76,0.00,,,0.00,meteohub,2013-11-14 11:51:00,
2013-11-14 05:56:00,32.0,25.5,29.96,SSW,194,0.0,0.0,76,0.00,,,0.00,meteohub,2013-11-14 11:56:00,
2013-11-14 06:01:00,32.0,25.5,29.97,SSW,194,0.0,0.0,83,0.00,,,0.00,meteohub,2013-11-14 12:01:00,
2013-11-14 06:06:00,30.9,25.5,29.97,SSW,194,0.0,0.0,77,0.00,,,0.00,meteohub,2013-11-14 12:06:00,
2013-11-14 06:11:00,30.9,25.7,29.97,SSW,194,0.0,0.0,78,0.00,,,0.00,meteohub,2013-11-14 12:11:00,
2013-11-14 06:17:00,30.9,25.7,29.97,SSW,194,0.0,0.0,78,0.00,,,0.00,meteohub,2013-11-14 12:17:00,
2013-11-14 06:22:00,30.0,25.7,29.96,SSW,194,0.0,0.0,79,0.00,,,0.00,meteohub,2013-11-14 12:22:00,
2013-11-14 06:27:00,30.0,26.1,29.96,SSW,194,0.0,0.0,80,0.00,,,0.00,meteohub,2013-11-14 12:27:00,
2013-11-14 06:32:00,30.0,26.1,29.97,SSW,194,0.0,0.0,80,0.00,,,0.00,meteohub,2013-11-14 12:32:00,
2013-11-14 06:37:00,30.0,26.1,29.97,SSW,194,0.0,0.0,80,0.00,,,0.00,meteohub,2013-11-14 12:37:00,
2013-11-14 06:42:00,28.9,26.1,29.97,SSW,194,0.0,0.0,81,0.00,,,0.00,meteohub,2013-11-14 12:42:00,
2013-11-14 06:47:00,28.9,25.7,29.96,SSW,194,0.0,0.0,81,0.00,,,0.00,meteohub,2013-11-14 12:47:00,
2013-11-14 06:52:00,28.9,26.1,29.96,SSW,194,0.0,0.0,82,0.00,,,0.00,meteohub,2013-11-14 12:52:00,
2013-11-14 06:57:00,28.9,25.9,29.96,SSW,194,4.0,0.0,83,0.00,,,0.00,meteohub,2013-11-14 12:57:00,
2013-11-14 07:02:00,30.0,25.9,29.97,SSW,194,1.0,6.0,83,0.00,,,0.00,meteohub,2013-11-14 13:02:00,
2013-11-14 07:07:00,30.0,26.1,29.97,SSW,194,0.0,6.0,81,0.00,,,0.00,meteohub,2013-11-14 13:07:00,
2013-11-14 07:12:00,30.9,25.3,29.96,SSW,194,0.0,6.0,80,0.00,,,0.00,meteohub,2013-11-14 13:12:00,
2013-11-14 07:17:00,30.9,25.5,29.97,SSW,194,0.0,5.0,78,0.00,,,0.00,meteohub,2013-11-14 13:17:00,
2013-11-14 07:22:00,30.9,25.2,29.97,SSW,194,0.0,2.0,78,0.00,,,0.00,meteohub,2013-11-14 13:22:00,
2013-11-14 07:27:00,30.9,25.2,29.97,SSW,194,0.0,0.0,78,0.00,,,0.00,meteohub,2013-11-14 13:27:00,
2013-11-14 07:32:00,30.0,24.8,29.97,SSW,194,0.0,0.0,78,0.00,,,0.00,meteohub,2013-11-14 13:32:00,
2013-11-14 07:37:00,30.0,25.0,29.97,SSW,194,0.0,0.0,80,0.00,,,0.00,meteohub,2013-11-14 13:37:00,
2013-11-14 07:42:00,30.0,25.5,29.97,SSW,194,0.0,0.0,81,0.00,,,0.00,meteohub,2013-11-14 13:42:00,
2013-11-14 07:47:00,30.0,25.7,29.97,SSW,194,0.0,0.0,81,0.00,,,0.00,meteohub,2013-11-14 13:47:00,
2013-11-14 07:52:00,28.9,25.3,29.98,SSW,194,0.0,0.0,81,0.00,,,0.00,meteohub,2013-11-14 13:52:00,
2013-11-14 07:57:00,28.9,25.5,29.98,SSW,194,0.0,0.0,83,0.00,,,0.00,meteohub,2013-11-14 13:57:00,
2013-11-14 08:02:00,30.0,25.7,29.98,SSW,194,0.0,0.0,84,0.00,,,0.00,meteohub,2013-11-14 14:02:00,
2013-11-14 08:07:00,30.0,25.7,29.99,SSW,194,0.0,0.0,84,0.00,,,0.00,meteohub,2013-11-14 14:07:00,
2013-11-14 08:12:00,30.0,26.2,29.99,SSW,194,0.0,0.0,85,0.00,,,0.00,meteohub,2013-11-14 14:12:00,
2013-11-14 08:17:00,30.9,26.8,29.99,SSW,194,0.0,0.0,85,0.00,,,0.00,meteohub,2013-11-14 14:17:00,
2013-11-14 08:22:00,30.9,27.0,29.99,SSW,194,0.0,0.0,85,0.00,,,0.00,meteohub,2013-11-14 14:22:00,
2013-11-14 08:27:00,32.0,27.0,29.99,SSW,194,0.0,0.0,84,0.00,,,0.00,meteohub,2013-11-14 14:27:00,
2013-11-14 08:32:00,33.1,27.3,29.99,SSW,194,0.0,0.0,82,0.00,,,0.00,meteohub,2013-11-14 14:32:00,
2013-11-14 08:37:00,34.0,28.0,30.00,SSW,194,0.0,0.0,80,0.00,,,0.00,meteohub,2013-11-14 14:37:00,
2013-11-14 08:42:00,35.1,28.6,30.00,SSW,194,0.0,4.0,78,0.00,,,0.00,meteohub,2013-11-14 14:42:00,
2013-11-14 08:47:00,36.0,28.0,30.00,SSW,196,4.0,4.0,76,0.00,,,0.00,meteohub,2013-11-14 14:47:00,
2013-11-14 08:52:00,37.0,28.8,30.00,SSW,203,3.0,5.0,73,0.00,,,0.00,meteohub,2013-11-14 14:52:00,
2013-11-14 08:57:00,37.9,28.4,30.00,SW,225,6.0,6.0,72,0.00,,,0.00,meteohub,2013-11-14 14:57:00,
2013-11-14 09:02:00,39.0,28.2,29.99,SSW,210,5.0,10.0,70,0.00,,,0.00,meteohub,2013-11-14 15:02:00,
2013-11-14 09:07:00,39.0,28.4,29.99,SW,214,6.0,10.0,67,0.00,,,0.00,meteohub,2013-11-14 15:07:00,
2013-11-14 09:12:00,39.9,28.6,29.99,SSW,211,6.0,10.0,65,0.00,,,0.00,meteohub,2013-11-14 15:12:00,
2013-11-14 09:18:00,39.9,28.0,29.99,SW,225,7.0,7.0,64,0.00,,,0.00,meteohub,2013-11-14 15:18:00,
2013-11-14 09:23:00,39.9,28.0,29.99,SW,224,2.0,10.0,64,0.00,,,0.00,meteohub,2013-11-14 15:23:00,
2013-11-14 09:28:00,41.0,28.4,29.99,SW,217,6.0,10.0,63,0.00,,,0.00,meteohub,2013-11-14 15:28:00,
2013-11-14 09:33:00,41.0,28.0,29.99,SW,216,7.0,10.0,61,0.00,,,0.00,meteohub,2013-11-14 15:33:00,
2013-11-14 09:38:00,42.1,27.9,30.00,SW,234,6.0,10.0,60,0.00,,,0.00,meteohub,2013-11-14 15:38:00,
2013-11-14 09:43:00,42.1,28.8,30.00,SW,221,3.0,10.0,61,0.00,,,0.00,meteohub,2013-11-14 15:43:00,
2013-11-14 09:48:00,42.1,28.2,30.00,SW,231,0.0,10.0,61,0.00,,,0.00,meteohub,2013-11-14 15:48:00,
2013-11-14 09:53:00,43.0,29.1,30.00,SW,230,3.0,9.0,60,0.00,,,0.00,meteohub,2013-11-14 15:53:00,
2013-11-14 09:58:00,43.0,28.9,30.00,SW,221,2.0,9.0,58,0.00,,,0.00,meteohub,2013-11-14 15:58:00,
2013-11-14 10:03:00,44.1,28.8,29.99,WSW,243,3.0,8.0,58,0.00,,,0.00,meteohub,2013-11-14 16:03:00,
2013-11-14 10:08:00,44.1,28.8,29.99,SW,235,2.0,8.0,58,0.00,,,0.00,meteohub,2013-11-14 16:08:00,
2013-11-14 10:13:00,44.1,28.8,29.99,SW,235,5.0,8.0,57,0.00,,,0.00,meteohub,2013-11-14 16:13:00,
2013-11-14 10:18:00,44.1,28.8,29.99,WSW,237,0.0,8.0,57,0.00,,,0.00,meteohub,2013-11-14 16:18:00,
2013-11-14 10:23:00,44.1,29.1,29.99,SW,236,6.0,8.0,57,0.00,,,0.00,meteohub,2013-11-14 16:23:00,
2013-11-14 10:29:00,44.1,29.7,29.99,SW,219,5.0,8.0,58,0.00,,,0.00,meteohub,2013-11-14 16:29:00,
2013-11-14 10:34:00,45.0,30.6,29.99,WSW,249,7.0,7.0,57,0.00,,,0.00,meteohub,2013-11-14 16:34:00,
2013-11-14 10:39:00,46.0,30.0,29.99,WSW,249,3.0,9.0,57,0.00,,,0.00,meteohub,2013-11-14 16:39:00,
2013-11-14 10:44:00,46.0,30.4,29.99,SW,220,0.0,9.0,55,0.00,,,0.00,meteohub,2013-11-14 16:44:00,
2013-11-14 10:49:00,46.9,30.9,29.98,SW,230,0.0,8.0,55,0.00,,,0.00,meteohub,2013-11-14 16:49:00,
2013-11-14 10:54:00,46.9,30.4,29.97,South,188,0.0,8.0,55,0.00,,,0.00,meteohub,2013-11-14 16:54:00,
2013-11-14 10:59:00,46.9,30.9,29.99,SW,232,4.0,7.0,55,0.00,,,0.00,meteohub,2013-11-14 16:59:00,
2013-11-14 11:04:00,48.0,31.5,29.99,WSW,244,1.0,9.0,56,0.00,,,0.00,meteohub,2013-11-14 17:04:00,
2013-11-14 11:09:00,48.0,30.7,29.99,South,189,6.0,9.0,52,0.00,,,0.00,meteohub,2013-11-14 17:09:00,
2013-11-14 11:14:00,48.9,32.2,29.99,NW,306,5.0,8.0,55,0.00,,,0.00,meteohub,2013-11-14 17:14:00,
2013-11-14 11:19:00,48.9,31.6,29.98,WSW,237,2.0,7.0,54,0.00,,,0.00,meteohub,2013-11-14 17:19:00,
2013-11-14 11:24:00,48.9,32.0,29.98,West,277,0.0,7.0,54,0.00,,,0.00,meteohub,2013-11-14 17:24:00,
2013-11-14 11:29:00,50.0,33.1,29.98,West,261,4.0,7.0,53,0.00,,,0.00,meteohub,2013-11-14 17:29:00,
2013-11-14 11:35:00,50.0,33.6,29.97,West,264,3.0,7.0,54,0.00,,,0.00,meteohub,2013-11-14 17:35:00,
2013-11-14 11:40:00,51.1,33.8,29.98,WSW,238,1.0,7.0,54,0.00,,,0.00,meteohub,2013-11-14 17:40:00,
2013-11-14 11:45:00,51.1,34.0,29.98,West,273,0.0,7.0,53,0.00,,,0.00,meteohub,2013-11-14 17:45:00,
2013-11-14 11:50:00,51.1,34.3,29.97,WNW,302,4.0,7.0,53,0.00,,,0.00,meteohub,2013-11-14 17:50:00,
2013-11-14 11:55:00,52.0,35.1,29.98,WNW,291,0.0,7.0,52,0.00,,,0.00,meteohub,2013-11-14 17:55:00,
2013-11-14 12:00:00,52.0,35.1,29.97,WNW,289,6.0,7.0,54,0.00,,,0.00,meteohub,2013-11-14 18:00:00,
2013-11-14 12:05:00,53.1,35.4,29.96,WNW,289,0.0,6.0,52,0.00,,,0.00,meteohub,2013-11-14 18:05:00,
2013-11-14 12:10:00,53.1,35.6,29.96,WSW,254,0.0,6.0,53,0.00,,,0.00,meteohub,2013-11-14 18:10:00,
2013-11-14 12:15:00,53.1,35.4,29.96,West,267,0.0,6.0,51,0.00,,,0.00,meteohub,2013-11-14 18:15:00,
2013-11-14 12:20:00,53.1,35.1,29.96,West,263,0.0,5.0,51,0.00,,,0.00,meteohub,2013-11-14 18:20:00,
2013-11-14 12:25:00,53.1,35.4,29.95,West,263,0.0,5.0,53,0.00,,,0.00,meteohub,2013-11-14 18:25:00,
2013-11-14 12:30:00,53.1,36.1,29.95,West,268,0.0,3.0,53,0.00,,,0.00,meteohub,2013-11-14 18:30:00,
2013-11-14 12:35:00,54.0,35.4,29.95,WNW,282,0.0,4.0,53,0.00,,,0.00,meteohub,2013-11-14 18:35:00,
2013-11-14 12:40:00,54.0,36.5,29.95,WNW,282,0.0,4.0,53,0.00,,,0.00,meteohub,2013-11-14 18:40:00,
2013-11-14 12:46:00,54.0,37.0,29.94,NNW,345,0.0,4.0,54,0.00,,,0.00,meteohub,2013-11-14 18:46:00,
2013-11-14 12:51:00,54.0,36.3,29.95,WSW,241,1.0,8.0,52,0.00,,,0.00,meteohub,2013-11-14 18:51:00,
2013-11-14 12:56:00,54.0,37.0,29.94,West,262,0.0,8.0,53,0.00,,,0.00,meteohub,2013-11-14 18:56:00,
2013-11-14 13:01:00,54.0,37.2,29.94,West,262,0.0,8.0,54,0.00,,,0.00,meteohub,2013-11-14 19:01:00,
2013-11-14 13:06:00,54.0,37.4,29.94,WNW,290,0.0,4.0,54,0.00,,,0.00,meteohub,2013-11-14 19:06:00,
2013-11-14 13:11:00,54.0,37.6,29.94,WNW,290,0.0,4.0,55,0.00,,,0.00,meteohub,2013-11-14 19:11:00,
2013-11-14 13:16:00,54.0,37.4,29.94,WNW,290,0.0,4.0,55,0.00,,,0.00,meteohub,2013-11-14 19:16:00,
2013-11-14 13:21:00,54.0,37.4,29.94,WNW,290,0.0,3.0,55,0.00,,,0.00,meteohub,2013-11-14 19:21:00,
2013-11-14 13:26:00,54.0,37.6,29.94,WNW,290,0.0,2.0,55,0.00,,,0.00,meteohub,2013-11-14 19:26:00,
2013-11-14 13:31:00,54.0,37.6,29.94,WNW,290,0.0,0.0,56,0.00,,,0.00,meteohub,2013-11-14 19:31:00,
2013-11-14 13:36:00,55.0,37.9,29.93,WNW,300,0.0,0.0,54,0.00,,,0.00,meteohub,2013-11-14 19:36:00,
2013-11-14 13:41:00,55.0,38.3,29.93,WNW,300,0.0,0.0,55,0.00,,,0.00,meteohub,2013-11-14 19:41:00,
2013-11-14 13:46:00,55.0,38.7,29.93,WNW,300,0.0,0.0,53,0.00,,,0.00,meteohub,2013-11-14 19:46:00,
2013-11-14 13:51:00,55.0,38.5,29.93,WNW,300,0.0,0.0,55,0.00,,,0.00,meteohub,2013-11-14 19:51:00,
2013-11-14 13:57:00,55.9,38.8,29.93,East,90,0.0,0.0,54,0.00,,,0.00,meteohub,2013-11-14 19:57:00,
2013-11-14 14:02:00,55.9,38.3,29.93,East,91,0.0,3.0,54,0.00,,,0.00,meteohub,2013-11-14 20:02:00,
2013-11-14 14:07:00,55.9,38.3,29.93,East,85,0.0,3.0,54,0.00,,,0.00,meteohub,2013-11-14 20:07:00,
2013-11-14 14:12:00,55.9,38.3,29.93,East,85,0.0,3.0,53,0.00,,,0.00,meteohub,2013-11-14 20:12:00,
2013-11-14 14:17:00,55.9,39.0,29.93,East,82,0.0,0.0,55,0.00,,,0.00,meteohub,2013-11-14 20:17:00,
2013-11-14 14:22:00,55.9,38.3,29.92,ENE,76,0.0,1.0,53,0.00,,,0.00,meteohub,2013-11-14 20:22:00,
2013-11-14 14:27:00,55.0,38.8,29.92,East,81,0.0,1.0,55,0.00,,,0.00,meteohub,2013-11-14 20:27:00,
2013-11-14 14:32:00,55.0,39.2,29.92,East,88,0.0,1.0,55,0.00,,,0.00,meteohub,2013-11-14 20:32:00,
2013-11-14 14:37:00,55.0,39.0,29.92,East,89,0.0,5.0,56,0.00,,,0.00,meteohub,2013-11-14 20:37:00,
2013-11-14 14:42:00,55.0,38.5,29.92,East,89,0.0,5.0,55,0.00,,,0.00,meteohub,2013-11-14 20:42:00,
2013-11-14 14:47:00,55.0,38.5,29.92,East,89,0.0,5.0,54,0.00,,,0.00,meteohub,2013-11-14 20:47:00,
2013-11-14 14:52:00,55.0,38.5,29.93,East,89,0.0,0.0,54,0.00,,,0.00,meteohub,2013-11-14 20:52:00,
2013-11-14 14:57:00,55.0,39.0,29.93,East,89,0.0,0.0,55,0.00,,,0.00,meteohub,2013-11-14 20:57:00,
2013-11-14 15:02:00,55.0,39.2,29.93,East,89,0.0,0.0,54,0.00,,,0.00,meteohub,2013-11-14 21:02:00,
2013-11-14 15:07:00,55.0,38.7,29.93,East,89,0.0,0.0,56,0.00,,,0.00,meteohub,2013-11-14 21:07:00,
2013-11-14 15:12:00,55.0,38.3,29.93,East,89,0.0,0.0,54,0.00,,,0.00,meteohub,2013-11-14 21:12:00,
2013-11-14 15:17:00,55.0,38.7,29.93,East,89,0.0,0.0,54,0.00,,,0.00,meteohub,2013-11-14 21:17:00,
2013-11-14 15:22:00,55.0,39.4,29.93,East,89,0.0,0.0,56,0.00,,,0.00,meteohub,2013-11-14 21:22:00,
2013-11-14 15:27:00,55.0,39.2,29.93,East,89,0.0,0.0,55,0.00,,,0.00,meteohub,2013-11-14 21:27:00,
2013-11-14 15:32:00,55.0,39.2,29.93,East,89,0.0,0.0,56,0.00,,,0.00,meteohub,2013-11-14 21:32:00,
2013-11-14 15:37:00,55.0,38.5,29.92,East,89,0.0,0.0,56,0.00,,,0.00,meteohub,2013-11-14 21:37:00,
2013-11-14 15:42:00,55.0,39.0,29.93,East,89,0.0,0.0,57,0.00,,,0.00,meteohub,2013-11-14 21:42:00,
2013-11-14 15:47:00,55.0,38.8,29.93,East,89,0.0,0.0,58,0.00,,,0.00,meteohub,2013-11-14 21:47:00,
2013-11-14 15:52:00,54.0,39.2,29.93,East,89,0.0,0.0,57,0.00,,,0.00,meteohub,2013-11-14 21:52:00,
2013-11-14 15:57:00,54.0,39.4,29.93,East,89,0.0,0.0,57,0.00,,,0.00,meteohub,2013-11-14 21:57:00,
2013-11-14 16:02:00,54.0,38.7,29.93,East,89,0.0,0.0,57,0.00,,,0.00,meteohub,2013-11-14 22:02:00,
2013-11-14 16:07:00,55.0,38.1,29.93,East,94,0.0,0.0,56,0.00,,,0.00,meteohub,2013-11-14 22:07:00,
2013-11-14 16:12:00,55.0,38.3,29.93,ESE,115,4.0,4.0,56,0.00,,,0.00,meteohub,2013-11-14 22:12:00,
2013-11-14 16:17:00,55.0,38.3,29.92,ESE,120,0.0,4.0,55,0.00,,,0.00,meteohub,2013-11-14 22:17:00,
2013-11-14 16:22:00,55.0,38.3,29.92,ESE,120,0.0,4.0,55,0.00,,,0.00,meteohub,2013-11-14 22:22:00,
2013-11-14 16:27:00,55.0,38.3,29.93,ESE,120,0.0,4.0,55,0.00,,,0.00,meteohub,2013-11-14 22:27:00,
2013-11-14 16:32:00,54.0,38.1,29.92,ESE,123,0.0,0.0,55,0.00,,,0.00,meteohub,2013-11-14 22:32:00,
2013-11-14 16:37:00,54.0,37.9,29.92,SE,128,0.0,3.0,55,0.00,,,0.00,meteohub,2013-11-14 22:37:00,
2013-11-14 16:42:00,54.0,37.6,29.92,SE,131,0.0,3.0,56,0.00,,,0.00,meteohub,2013-11-14 22:42:00,
2013-11-14 16:47:00,53.1,37.8,29.92,SE,131,0.0,3.0,56,0.00,,,0.00,meteohub,2013-11-14 22:47:00,
2013-11-14 16:52:00,53.1,37.4,29.93,SE,131,0.0,3.0,59,0.00,,,0.00,meteohub,2013-11-14 22:52:00,
2013-11-14 16:57:00,52.0,37.0,29.93,SE,131,0.0,0.0,61,0.00,,,0.00,meteohub,2013-11-14 22:57:00,
2013-11-14 17:02:00,51.1,37.2,29.93,SE,131,0.0,0.0,64,0.00,,,0.00,meteohub,2013-11-14 23:02:00,
2013-11-14 17:07:00,50.0,37.2,29.93,SE,131,0.0,0.0,62,0.00,,,0.00,meteohub,2013-11-14 23:07:00,
2013-11-14 17:12:00,48.0,36.9,29.93,SE,131,0.0,0.0,61,0.00,,,0.00,meteohub,2013-11-14 23:12:00,
2013-11-14 17:17:00,48.0,36.7,29.93,SE,131,0.0,0.0,60,0.00,,,0.00,meteohub,2013-11-14 23:17:00,
2013-11-14 17:22:00,46.0,36.1,29.93,SE,131,0.0,0.0,64,0.00,,,0.00,meteohub,2013-11-14 23:22:00,
2013-11-14 17:27:00,44.1,36.1,29.93,SE,131,0.0,0.0,67,0.00,,,0.00,meteohub,2013-11-14 23:27:00,
2013-11-14 17:32:00,43.0,36.3,29.93,SE,131,0.0,0.0,69,0.00,,,0.00,meteohub,2013-11-14 23:32:00,
2013-11-14 17:37:00,42.1,36.1,29.93,SE,131,0.0,0.0,70,0.00,,,0.00,meteohub,2013-11-14 23:37:00,
2013-11-14 17:42:00,41.0,35.8,29.93,SE,131,0.0,0.0,73,0.00,,,0.00,meteohub,2013-11-14 23:42:00,
2013-11-14 17:47:00,39.9,35.8,29.94,SE,131,0.0,0.0,74,0.00,,,0.00,meteohub,2013-11-14 23:47:00,
2013-11-14 17:52:00,39.0,35.1,29.94,SE,131,0.0,0.0,75,0.00,,,0.00,meteohub,2013-11-14 23:52:00,
2013-11-14 17:57:00,39.0,35.2,29.94,SE,131,0.0,0.0,76,0.00,,,0.00,meteohub,2013-11-14 23:57:00,
2013-11-14 18:02:00,37.9,35.4,29.94,SE,131,0.0,0.0,78,0.00,,,0.00,meteohub,2013-11-15 00:02:00,
2013-11-14 18:07:00,37.9,34.9,29.94,SE,131,0.0,0.0,79,0.00,,,0.00,meteohub,2013-11-15 00:07:00,
2013-11-14 18:12:00,37.9,35.2,29.94,SE,131,0.0,0.0,80,0.00,,,0.00,meteohub,2013-11-15 00:12:00,
2013-11-14 18:17:00,37.0,34.9,29.94,SE,131,0.0,0.0,80,0.00,,,0.00,meteohub,2013-11-15 00:17:00,
2013-11-14 18:22:00,37.0,35.2,29.94,SE,131,0.0,0.0,81,0.00,,,0.00,meteohub,2013-11-15 00:22:00,
2013-11-14 18:27:00,37.0,35.2,29.94,SE,131,0.0,0.0,80,0.00,,,0.00,meteohub,2013-11-15 00:27:00,
2013-11-14 18:32:00,37.0,35.2,29.93,SE,131,0.0,0.0,80,0.00,,,0.00,meteohub,2013-11-15 00:32:00,
2013-11-14 18:37:00,36.0,35.2,29.93,SE,131,0.0,0.0,81,0.00,,,0.00,meteohub,2013-11-15 00:37:00,
2013-11-14 18:42:00,36.0,35.4,29.93,SE,131,0.0,0.0,81,0.00,,,0.00,meteohub,2013-11-15 00:42:00,
2013-11-14 18:47:00,35.1,34.7,29.93,SE,131,0.0,0.0,81,0.00,,,0.00,meteohub,2013-11-15 00:47:00,
2013-11-14 18:52:00,35.1,34.3,29.93,SE,131,0.0,0.0,82,0.00,,,0.00,meteohub,2013-11-15 00:52:00,
2013-11-14 18:57:00,35.1,34.7,29.93,SE,131,0.0,0.0,83,0.00,,,0.00,meteohub,2013-11-15 00:57:00,
2013-11-14 19:02:00,35.1,34.7,29.93,SE,131,0.0,0.0,83,0.00,,,0.00,meteohub,2013-11-15 01:02:00,
2013-11-14 19:07:00,34.0,34.3,29.93,SE,131,0.0,0.0,84,0.00,,,0.00,meteohub,2013-11-15 01:07:00,
2013-11-14 19:12:00,34.0,34.3,29.93,SE,131,0.0,0.0,83,0.00,,,0.00,meteohub,2013-11-15 01:12:00,
2013-11-14 19:17:00,34.0,34.5,29.93,SE,131,0.0,0.0,83,0.00,,,0.00,meteohub,2013-11-15 01:17:00,
2013-11-14 19:22:00,33.1,34.2,29.93,SE,131,0.0,0.0,84,0.00,,,0.00,meteohub,2013-11-15 01:22:00,
2013-11-14 19:27:00,33.1,34.0,29.93,SE,131,0.0,0.0,85,0.00,,,0.00,meteohub,2013-11-15 01:27:00,
2013-11-14 19:32:00,33.1,34.0,29.93,SE,131,0.0,0.0,85,0.00,,,0.00,meteohub,2013-11-15 01:32:00,
2013-11-14 19:37:00,33.1,33.4,29.93,SE,131,0.0,0.0,84,0.00,,,0.00,meteohub,2013-11-15 01:37:00,
2013-11-14 19:42:00,32.0,33.3,29.93,SE,131,0.0,0.0,85,0.00,,,0.00,meteohub,2013-11-15 01:42:00,
2013-11-14 19:47:00,32.0,33.3,29.94,SE,131,0.0,0.0,85,0.00,,,0.00,meteohub,2013-11-15 01:47:00,
2013-11-14 19:52:00,32.0,33.1,29.94,SE,131,0.0,0.0,86,0.00,,,0.00,meteohub,2013-11-15 01:52:00,
2013-11-14 19:57:00,32.0,33.1,29.94,SE,131,0.0,0.0,85,0.00,,,0.00,meteohub,2013-11-15 01:57:00,
2013-11-14 20:02:00,30.9,32.5,29.94,SE,131,0.0,0.0,86,0.00,,,0.00,meteohub,2013-11-15 02:02:00,
2013-11-14 20:07:00,30.9,32.4,29.94,SE,131,0.0,0.0,86,0.00,,,0.00,meteohub,2013-11-15 02:07:00,
2013-11-14 20:12:00,30.9,33.1,29.94,SE,131,0.0,0.0,87,0.00,,,0.00,meteohub,2013-11-15 02:12:00,
2013-11-14 20:17:00,30.9,33.6,29.93,SE,131,0.0,0.0,87,0.00,,,0.00,meteohub,2013-11-15 02:17:00,
2013-11-14 20:22:00,30.9,34.0,29.93,SE,131,0.0,0.0,87,0.00,,,0.00,meteohub,2013-11-15 02:22:00,
2013-11-14 20:27:00,30.0,33.1,29.93,SE,131,0.0,0.0,88,0.00,,,0.00,meteohub,2013-11-15 02:27:00,
2013-11-14 20:32:00,30.0,32.2,29.93,SE,131,0.0,0.0,88,0.00,,,0.00,meteohub,2013-11-15 02:32:00,
2013-11-14 20:37:00,30.0,32.0,29.93,SE,131,0.0,0.0,88,0.00,,,0.00,meteohub,2013-11-15 02:37:00,
2013-11-14 20:42:00,30.0,32.0,29.94,SE,131,0.0,0.0,89,0.00,,,0.00,meteohub,2013-11-15 02:42:00,
2013-11-14 20:47:00,30.0,32.4,29.94,SE,131,0.0,0.0,89,0.00,,,0.00,meteohub,2013-11-15 02:47:00,
2013-11-14 20:52:00,30.0,32.7,29.94,SE,131,0.0,0.0,89,0.00,,,0.00,meteohub,2013-11-15 02:52:00,
2013-11-14 20:57:00,30.0,33.4,29.94,SE,131,0.0,0.0,89,0.00,,,0.00,meteohub,2013-11-15 02:57:00,
2013-11-14 21:02:00,30.0,33.8,29.94,SE,131,0.0,0.0,88,0.00,,,0.00,meteohub,2013-11-15 03:02:00,
2013-11-14 21:07:00,30.0,33.4,29.94,SE,131,0.0,0.0,89,0.00,,,0.00,meteohub,2013-11-15 03:07:00,
2013-11-14 21:12:00,30.0,33.6,29.94,SE,131,0.0,0.0,89,0.00,,,0.00,meteohub,2013-11-15 03:12:00,
2013-11-14 21:17:00,28.9,33.3,29.94,SE,131,0.0,0.0,89,0.00,,,0.00,meteohub,2013-11-15 03:17:00,
2013-11-14 21:22:00,28.9,33.1,29.94,SE,131,0.0,0.0,89,0.00,,,0.00,meteohub,2013-11-15 03:22:00,
2013-11-14 21:27:00,28.9,33.4,29.94,SE,131,0.0,0.0,90,0.00,,,0.00,meteohub,2013-11-15 03:27:00,
2013-11-14 21:32:00,28.9,33.8,29.94,SE,131,0.0,0.0,90,0.00,,,0.00,meteohub,2013-11-15 03:32:00,
2013-11-14 21:37:00,28.9,33.3,29.94,SE,131,0.0,0.0,90,0.00,,,0.00,meteohub,2013-11-15 03:37:00,
2013-11-14 21:42:00,28.9,31.6,29.94,SE,131,0.0,0.0,89,0.00,,,0.00,meteohub,2013-11-15 03:42:00,
2013-11-14 21:47:00,28.9,30.9,29.94,SE,131,0.0,0.0,89,0.00,,,0.00,meteohub,2013-11-15 03:47:00,
2013-11-14 21:52:00,28.9,30.6,29.94,SE,131,0.0,0.0,89,0.00,,,0.00,meteohub,2013-11-15 03:52:00,
2013-11-14 21:57:00,28.0,30.6,29.94,SE,131,0.0,0.0,89,0.00,,,0.00,meteohub,2013-11-15 03:57:00,
2013-11-14 22:02:00,28.0,30.2,29.94,SE,131,0.0,0.0,89,0.00,,,0.00,meteohub,2013-11-15 04:02:00,
2013-11-14 22:07:00,28.0,30.2,29.94,SE,131,0.0,0.0,89,0.00,,,0.00,meteohub,2013-11-15 04:07:00,
2013-11-14 22:12:00,28.0,29.8,29.94,SE,131,0.0,0.0,89,0.00,,,0.00,meteohub,2013-11-15 04:12:00,
2013-11-14 22:17:00,28.0,30.2,29.94,SE,131,0.0,0.0,90,0.00,,,0.00,meteohub,2013-11-15 04:17:00,
2013-11-14 22:22:00,28.0,29.8,29.94,SE,131,0.0,0.0,90,0.00,,,0.00,meteohub,2013-11-15 04:22:00,
2013-11-14 22:27:00,28.0,29.7,29.94,SE,131,0.0,0.0,90,0.00,,,0.00,meteohub,2013-11-15 04:27:00,
2013-11-14 22:32:00,28.0,29.5,29.94,SE,131,0.0,0.0,90,0.00,,,0.00,meteohub,2013-11-15 04:32:00,
2013-11-14 22:37:00,27.0,29.3,29.94,SE,131,0.0,0.0,91,0.00,,,0.00,meteohub,2013-11-15 04:37:00,
2013-11-14 22:42:00,27.0,29.3,29.94,SE,131,0.0,0.0,90,0.00,,,0.00,meteohub,2013-11-15 04:42:00,
2013-11-14 22:47:00,27.0,29.3,29.94,SE,131,0.0,0.0,91,0.00,,,0.00,meteohub,2013-11-15 04:47:00,
2013-11-14 22:52:00,27.0,29.7,29.94,SE,131,0.0,0.0,90,0.00,,,0.00,meteohub,2013-11-15 04:52:00,
2013-11-14 22:57:00,27.0,29.7,29.94,SE,131,0.0,0.0,91,0.00,,,0.00,meteohub,2013-11-15 04:57:00,
2013-11-14 23:01:00,27.0,29.5,29.94,SE,131,0.0,0.0,91,0.00,,,0.00,meteohub,2013-11-15 05:01:00,
2013-11-14 23:02:00,27.0,29.5,29.94,SE,131,0.0,0.0,91,0.00,,,0.00,meteohub,2013-11-15 05:02:00,
2013-11-14 23:03:00,27.0,29.3,29.94,SE,131,0.0,0.0,91,0.00,,,0.00,meteohub,2013-11-15 05:03:00,
2013-11-14 23:04:00,27.0,29.1,29.94,SE,131,0.0,0.0,91,0.00,,,0.00,meteohub,2013-11-15 05:04:00,
2013-11-14 23:09:00,27.0,29.1,29.94,SE,131,0.0,0.0,91,0.00,,,0.00,meteohub,2013-11-15 05:09:00,
2013-11-14 23:12:00,27.0,29.1,29.94,SE,131,0.0,0.0,91,0.00,,,0.00,meteohub,2013-11-15 05:12:00,
2013-11-14 23:17:00,27.0,29.5,29.94,SE,131,0.0,0.0,91,0.00,,,0.00,meteohub,2013-11-15 05:17:00,
2013-11-14 23:22:00,27.0,29.5,29.94,SE,131,0.0,0.0,91,0.00,,,0.00,meteohub,2013-11-15 05:22:00,
2013-11-14 23:27:00,27.0,29.7,29.94,SE,131,0.0,0.0,91,0.00,,,0.00,meteohub,2013-11-15 05:27:00,
2013-11-14 23:32:00,26.1,29.5,29.94,SE,131,0.0,0.0,91,0.00,,,0.00,meteohub,2013-11-15 05:32:00,
2013-11-14 23:37:00,26.1,28.9,29.93,SE,131,0.0,0.0,91,0.00,,,0.00,meteohub,2013-11-15 05:37:00,
2013-11-14 23:43:00,26.1,28.6,29.93,SE,131,0.0,0.0,91,0.00,,,0.00,meteohub,2013-11-15 05:43:00,
2013-11-14 23:48:00,26.1,28.4,29.93,SE,131,0.0,0.0,91,0.00,,,0.00,meteohub,2013-11-15 05:48:00,
2013-11-14 23:53:00,26.1,28.0,29.93,SE,131,0.0,0.0,91,0.00,,,0.00,meteohub,2013-11-15 05:53:00,
2013-11-14 23:58:00,26.1,28.4,29.93,SE,131,0.0,0.0,91,0.00,,,0.00,meteohub,2013-11-15 05:58:00,